User: anonymous   Login
Location: Unspecified
(0.0000°N, 0.0000°E)
Time: 00:46:03
(UTC+00:00)
Language:

DX 1 - Orbit

View from above orbital plane
View from above orbital plane
View from above satellite
View from above satellite

Ground track
Ground track

The orbit data is extracted from the following two-line orbital elements,

1 40071U 14037C   19200.83044646  .00000043  00000-0  13085-4 0  9992
2 40071  98.4299 356.3082 0009435 121.9148 238.2988 14.81277138271865
Epoch (UTC): 19 July 2019 19:55:50
Eccentricity: 0.0009435
inclination: 98.4299°
perigee height: 618 km
apogee height: 632 km
right ascension of ascending node: 356.3082°
argument of perigee: 121.9148°
revolutions per day: 14.81277138
mean anomaly at epoch: 238.2988°
orbit number at epoch: 27186

The dashed part of the orbit path shows where the satellite is in the earth's shadow,  

DLR